Triuchirapalli, India

10:39 AM IST on June 26, 2017 (GMT +0530)
Tiruchirappalli

Weather History for VOTR - August, 2014

Change the Weather History Date:

Friday, August 1, 2014

  Actual Average Record
Temperature  
Mean Temperature 90 °F -  
Max Temperature 100 °F 92 °F 100 °F (2012)
Min Temperature 79 °F 79 °F 73 °F (2003)
Cooling Degree Days 24    
Growing Degree Days 40 (Base 50)    
Moisture  
Dew Point 70 °F    
Average Humidity 54    
Maximum Humidity 74    
Minimum Humidity 27    
Precipitation  
Precipitation 0.00 in - - ()
Sea Level Pressure  
Sea Level Pressure 29.73 in    
Wind  
Wind Speed 12 mph ()    
Max Wind Speed 23 mph    
Max Gust Speed 38 mph    
Visibility 3.8 miles    
Events      
Averages and records for this station are not official NWS values.
T = Trace of Precipitation, MM = Missing Value Source: Averaged Metar Reports

Daily Weather History Graph

Daily Weather History Graph

Search for Another Location

Airport or City:

Trip Planner

Search our weather history database for the weather conditions in past years. The results will help you decide how hot, cold, wet, or windy it might be!

Date:

Astronomy

Aug. 01, 2014 Rise Set
Actual Time 6:03 AM IST 6:39 PM IST
Civil Twilight 5:41 AM IST 7:01 PM IST
Nautical Twilight 5:15 AM IST 7:27 PM IST
Astronomical Twilight 4:48 AM IST 7:53 PM IST
Moon 10:00 AM IST (8/1) 10:14 PM IST (8/1)
Length of Visible Light 13h 20m
Length of Day
12h 35m
Waxing Crescent, 24% of the Moon is Illuminated
Aug 1
Waxing Crescent
Aug 4
First Quarter
Aug 10
Full
Aug 17
Last Quarter
Aug 25
New

Hourly Weather History & Observations

Time (IST) Temp. Heat Index Dew Point Humidity Pressure Visibility Wind Dir Wind Speed Gust Speed Precip Events Conditions
12:10 AM 84.2 °F 89.6 °F 71.6 °F 66% 29.74 in 3.7 mi WNW 11.5 mph - N/A   Scattered Clouds
12:40 AM 84.2 °F 88.4 °F 69.8 °F 62% 29.74 in 3.7 mi West 11.5 mph - N/A   Scattered Clouds
1:10 AM 84.2 °F 88.4 °F 69.8 °F 62% 29.74 in 3.7 mi West 9.2 mph - N/A   Scattered Clouds
1:40 AM 84.2 °F 88.4 °F 69.8 °F 62% 29.74 in 3.7 mi West 9.2 mph - N/A   Scattered Clouds
2:10 AM 84.2 °F 88.4 °F 69.8 °F 62% 29.71 in 3.7 mi West 9.2 mph - N/A   Scattered Clouds
2:30 AM 83 °F - 70 °F 57% 29.72 in 2 mi West 9.2 mph - -   Haze
2:40 AM 82.4 °F 86.3 °F 69.8 °F 66% 29.71 in 3.7 mi West 9.2 mph - N/A   Scattered Clouds
3:10 AM 82.4 °F 86.3 °F 69.8 °F 66% 29.71 in 3.7 mi West 11.5 mph - N/A   Scattered Clouds
3:40 AM 82.4 °F 86.3 °F 69.8 °F 66% 29.71 in 3.7 mi West 11.5 mph - N/A   Scattered Clouds
4:10 AM 82.4 °F 86.3 °F 69.8 °F 66% 29.71 in 3.7 mi WNW 11.5 mph - N/A   Scattered Clouds
4:40 AM 82.4 °F 86.3 °F 69.8 °F 66% 29.74 in 3.7 mi West 11.5 mph - N/A   Scattered Clouds
5:10 AM 82.4 °F 86.3 °F 69.8 °F 66% 29.74 in 3.7 mi West 11.5 mph - N/A   Mostly Cloudy
5:30 AM 82 °F - 71 °F 61% 29.73 in 2 mi West 11.5 mph - -   Haze
5:40 AM 82.4 °F 87.2 °F 71.6 °F 70% 29.74 in 3.7 mi West 11.5 mph - N/A   Mostly Cloudy
6:10 AM 82.4 °F 86.3 °F 69.8 °F 66% 29.74 in 3.7 mi West 11.5 mph - N/A   Scattered Clouds
6:40 AM 82.4 °F 86.3 °F 69.8 °F 66% 29.74 in 3.7 mi West 11.5 mph - N/A   Mostly Cloudy
7:10 AM 82.4 °F 87.2 °F 71.6 °F 70% 29.74 in 3.7 mi West 13.8 mph - N/A   Mostly Cloudy
7:40 AM 84.2 °F 88.4 °F 69.8 °F 62% 29.74 in 3.7 mi West 13.8 mph - N/A   Mostly Cloudy
8:10 AM 84.2 °F 88.4 °F 69.8 °F 62% 29.77 in 3.7 mi West 13.8 mph - N/A   Mostly Cloudy
8:30 AM 85 °F - 69 °F 51% 29.76 in 2 mi West 13.8 mph - -   Haze
8:40 AM 86.0 °F 90.4 °F 69.8 °F 58% 29.77 in 3.7 mi West 11.5 mph 23.0 mph N/A   Mostly Cloudy
9:10 AM 87.8 °F 92.6 °F 69.8 °F 55% 29.77 in 3.7 mi West 10.4 mph 21.9 mph N/A   Mostly Cloudy
10:10 AM 91.4 °F 96.8 °F 69.8 °F 49% 29.77 in 3.7 mi WNW 13.8 mph 25.3 mph N/A   Mostly Cloudy
10:40 AM 93.2 °F 97.7 °F 68.0 °F 44% 29.77 in 3.7 mi WNW 13.8 mph 25.3 mph N/A   Scattered Clouds
11:10 AM 95.0 °F 99.5 °F 68.0 °F 41% 29.74 in 5.0 mi WNW 15.0 mph 26.5 mph N/A   Scattered Clouds
11:30 AM 95 °F - 68 °F 32% 29.74 in 2 mi WNW 16.1 mph - -   Haze
11:40 AM 95.0 °F 101.3 °F 69.8 °F 44% 29.74 in 5.0 mi WNW 13.8 mph 25.3 mph N/A   Scattered Clouds
12:10 PM 96.8 °F 103.1 °F 69.8 °F 41% 29.74 in 5.0 mi WNW 13.8 mph 25.3 mph N/A   Mostly Cloudy
12:40 PM 96.8 °F 103.1 °F 69.8 °F 41% 29.74 in 5.0 mi WNW 15.0 mph 26.5 mph N/A   Mostly Cloudy
1:10 PM 96.8 °F 103.1 °F 69.8 °F 41% 29.71 in 5.0 mi WNW 15.0 mph 26.5 mph N/A   Mostly Cloudy
1:40 PM 98.6 °F 105.5 °F 69.8 °F 39% 29.71 in 5.0 mi West 11.5 mph 23.0 mph N/A   Mostly Cloudy
2:10 PM 98.6 °F 105.5 °F 69.8 °F 39% 29.68 in 5.0 mi WNW 15.0 mph 26.5 mph N/A   Mostly Cloudy
2:30 PM 100 °F - 69 °F 27% 29.67 in 2 mi WNW 15.0 mph - -   Haze
2:40 PM 100.4 °F 109.3 °F 71.6 °F 39% 29.68 in 5.0 mi West 15.0 mph 26.5 mph N/A   Mostly Cloudy
3:10 PM 100.4 °F 107.8 °F 69.8 °F 37% 29.68 in 5.0 mi NW 12.7 mph 24.2 mph N/A   Mostly Cloudy
3:40 PM 100.4 °F 109.3 °F 71.6 °F 39% 29.65 in 5.0 mi West 12.7 mph - N/A   Mostly Cloudy
4:10 PM 98.6 °F 105.5 °F 69.8 °F 39% 29.65 in 5.0 mi NW 17.3 mph - N/A   Mostly Cloudy
4:40 PM 98.6 °F 107.7 °F 71.6 °F 42% 29.65 in 5.0 mi West 13.8 mph 25.3 mph N/A   Scattered Clouds
5:10 PM 96.8 °F 103.1 °F 69.8 °F 41% 29.65 in 5.0 mi WNW 12.7 mph 24.2 mph N/A   Scattered Clouds
5:30 PM 97 °F - 68 °F 30% 29.65 in 2 mi West 21.9 mph - -   Haze
5:40 PM 96.8 °F 103.1 °F 69.8 °F 41% 29.65 in 5.0 mi West 18.4 mph 29.9 mph N/A   Scattered Clouds
6:10 PM 95.0 °F 101.3 °F 69.8 °F 44% 29.68 in 5.0 mi West 21.9 mph 33.4 mph N/A   Scattered Clouds
6:40 PM 93.2 °F 100.5 °F 71.6 °F 49% 29.71 in 3.7 mi West 23.0 mph 38.0 mph N/A   Mostly Cloudy
7:10 PM 91.4 °F 98.4 °F 71.6 °F 52% 29.71 in 3.7 mi West 17.3 mph 28.8 mph N/A   Mostly Cloudy
7:40 PM 89.6 °F 96.2 °F 71.6 °F 55% 29.74 in 3.7 mi West 13.8 mph 25.3 mph N/A   Mostly Cloudy
8:10 PM 87.8 °F 93.8 °F 71.6 °F 58% 29.74 in 3.7 mi West 17.3 mph 28.8 mph N/A   Mostly Cloudy
8:30 PM 85 °F - 69 °F 49% 29.74 in 2 mi West 21.9 mph - -   Haze
8:40 PM 86.0 °F 91.8 °F 71.6 °F 62% 29.74 in 3.7 mi West 17.3 mph 28.8 mph N/A   Mostly Cloudy
9:10 PM 84.2 °F 88.4 °F 69.8 °F 62% 29.74 in 3.7 mi West 17.3 mph 28.8 mph N/A   Mostly Cloudy
9:40 PM 82.4 °F 86.3 °F 69.8 °F 66% 29.77 in 3.7 mi West 15.0 mph 26.5 mph N/A   Mostly Cloudy
10:10 PM 82.4 °F 86.3 °F 69.8 °F 66% 29.77 in 3.7 mi West 17.3 mph 28.8 mph N/A   Mostly Cloudy
10:40 PM 80.6 °F 83.9 °F 69.8 °F 70% 29.77 in 3.7 mi West 16.1 mph 27.6 mph N/A   Mostly Cloudy
11:10 PM 80.6 °F 83.9 °F 69.8 °F 70% 29.77 in 3.7 mi West 12.7 mph 24.2 mph N/A   Mostly Cloudy
11:30 PM 81 °F - 71 °F 63% 29.75 in 2 mi West 15.0 mph - -   Haze
11:40 PM 80.6 °F 84.6 °F 71.6 °F 74% 29.77 in 3.7 mi West 12.7 mph 24.2 mph N/A   Mostly Cloudy